Lid_Strength_Index
2 2 2 1 1 1 1 1 1 1 1 1 1 1 1 2 2 3 4 4 5 8 7 5 5 6 6 6 9 6 7 6 6 9 9 9 10 8 10 8 10 10 13 14 13 14 16 8 9 10 6 5 5 5
2 2 2 2 2 1 1 1 1 1 1 1 1 1 1 2 2 2 5 4 3 6 6 3 3 2 3 4 6 6 6 6 6 9 8 9 10 9 9 12 7 11 9 11 11 12 8 7 8 6 6 6 6 5
2 2 2 2 2 1 1 1 1 1 1 1 1 1 1 2 2 2 4 4 5 7 7 6 5 3 2 2 2 7 6 5 5 4 7 7 11 7 10 9 9 8 6 9 9 9 9 8 7 7 6 6 4 4
3 2 2 2 2 2 1 1 1 1 1 1 1 1 2 2 2 2 3 4 4 7 10 6 3 4 3 3 4 4 6 6 6 6 8 10 10 7 9 8 8 7 6 8 8 7 7 7 7 7 6 6 6 5
3 2 2 2 2 2 2 2 2 2 1 1 1 1 2 2 2 1 2 4 3 7 9 8 5 4 4 4 6 5 6 8 9 10 11 12 9 10 9 9 9 7 8 9 10 6 7 6 6 6 7 7 5 4
3 2 2 2 2 2 2 2 2 2 2 1 1 2 3 3 3 4 6 4 2 4 9 11 6 7 6 6 7 7 7 8 8 10 11 10 8 11 13 14 10 8 7 7 8 5 5 5 5 5 6 5 4 4
3 2 2 2 2 2 2 2 2 2 1 1 2 2 3 3 3 5 6 4 3 4 9 12 10 6 6 7 8 8 7 8 9 12 12 12 12 12 14 15 11 9 8 7 7 6 7 6 7 5 5 4 3 3
3 2 2 2 2 2 2 2 2 2 1 2 2 3 3 4 4 5 4 4 3 7 9 12 10 8 6 8 9 8 10 10 11 12 12 14 13 14 16 12 10 8 7 8 9 8 7 5 6 5 4 4 4 4
3 2 2 2 2 2 2 2 2 2 2 3 3 3 3 4 6 5 4 4 4 8 12 12 13 12 7 8 7 9 10 13 10 13 13 11 14 16 15 12 8 6 6 6 6 8 7 7 5 6 6 5 5 6
3 2 2 2 2 2 2 2 2 2 3 3 3 4 6 5 3 4 6 9 9 9 11 13 11 13 10 9 10 9 9 12 12 11 9 13 14 11 9 8 7 6 6 6 7 7 6 6 6 5 5 5 5 5
3 3 2 3 2 2 2 2 2 3 4 2 3 4 4 3 6 7 10 11 11 13 12 12 11 12 8 11 10 9 11 12 14 11 11 13 14 11 9 8 7 7 7 6 5 5 5 4 5 6 5 5 5 6
3 3 3 3 2 2 2 2 3 2 2 3 4 4 3 5 5 8 10 9 10 11 7 10 9 9 9 7 8 8 11 9 13 7 11 15 11 9 9 9 8 7 7 7 6 7 7 7 5 5 5 5 6 7
3 3 3 2 2 2 2 2 2 2 3 3 5 5 5 6 11 12 13 11 11 7 6 6 8 6 6 6 8 8 10 12 7 11 14 12 8 7 8 8 8 7 7 7 8 7 8 8 8 8 7 6 5 5
3 3 3 2 2 2 2 2 2 2 1 4 6 11 8 9 9 9 9 8 7 6 5 6 6 7 5 8 8 11 10 9 13 15 14 9 8 7 7 7 7 7 8 8 8 8 8 8 9 8 8 8 7 7
3 3 3 2 2 2 2 2 2 -1 2 5 5 11 8 6 5 5 5 5 4 4 5 5 5 5 7 8 8 9 11 14 13 13 10 7 7 7 7 7 7 7 7 7 7 7 7 8 8 8 8 7 6 8
2 2 0 2 2 2 2 0 -1 -0 2 4 5 6 5 6 6 5 5 5 3 4 4 4 7 8 8 8 10 12 13 14 12 9 7 7 7 6 6 6 6 7 6 6 6 6 6 7 7 7 7 7 7 7
3 -0 2 2 2 2 1 -1 0 3 4 5 5 4 4 5 5 5 4 4 2 4 6 6 9 10 6 9 10 8 10 9 7 6 6 6 6 5 5 5 5 5 6 6 6 6 6 6 5 6 7 6 7 6
-0 -1 2 3 2 0 -1 0 2 3 6 4 6 5 4 4 4 4 3 3 3 4 5 7 5 8 9 11 10 8 6 5 5 5 5 5 5 4 4 5 5 5 5 5 5 5 4 5 5 5 5 5 6 6
1 1 3 3 1 1 2 2 2 5 4 3 3 3 3 3 3 2 2 2 3 3 3 5 7 8 8 6 7 6 6 6 5 5 5 4 5 5 5 4 5 5 5 5 6 6 5 4 5 5 4 5 6 6
3 3 2 2 1 1 4 3 1 4 5 4 3 3 3 4 3 3 3 3 4 4 6 7 7 6 6 5 5 5 5 5 5 5 5 5 4 4 5 5 6 5 6 6 6 7 6 5 5 5 5 6 6 6
1 -0 1 0 -0 0 2 3 4 3 3 4 3 4 4 2 4 4 5 3 5 5 6 5 5 5 3 4 4 4 5 5 6 5 5 5 5 5 5 5 4 5 6 6 6 6 6 5 5 5 5 5 5 6
-1 2 -0 -1 2 2 3 2 3 2 4 4 4 3 5 5 5 4 3 5 6 5 4 4 4 4 4 4 4 4 4 4 4 5 6 5 5 5 5 5 6 6 6 6 6 6 5 5 4 4 5 5 6 6
1 0 1 2 4 6 7 1 5 4 7 6 4 6 5 5 4 2 5 4 4 3 3 2 2 3 4 4 4 4 4 5 6 6 6 6 5 5 5 5 5 6 6 6 5 5 5 7 6 5 5 5 5 6
3 2 5 5 4 7 3 5 3 5 5 6 6 8 7 6 3 4 6 5 4 2 3 3 3 4 4 4 5 5 5 5 5 5 5 6 6 6 5 5 5 5 5 5 5 5 5 5 7 5 6 6 6 6
7 7 6 10 4 6 7 7 7 5 8 7 8 7 6 4 6 7 7 6 5 4 4 3 3 4 5 5 4 5 4 5 6 7 6 6 6 6 6 6 5 5 5 6 5 5 5 5 5 6 6 6 7 7
11 6 9 6 6 7 6 8 7 7 6 7 7 5 4 6 8 9 6 5 4 4 4 4 5 5 4 4 6 6 6 5 5 6 6 6 6 7 7 7 7 6 5 5 5 6 6 6 6 6 6 7 8 7
9 7 4 2 4 4 5 4 4 5 7 7 5 7 6 9 9 6 4 4 3 3 2 3 4 5 5 5 4 4 4 5 6 6 5 5 5 5 5 6 7 6 5 5 5 5 6 6 6 6 6 5 5 5
4 5 7 5 5 4 7 6 7 7 6 4 4 8 8 8 6 4 3 3 2 2 4 5 4 4 4 4 4 4 4 4 5 4 4 4 3 3 4 4 4 7 4 4 5 4 5 5 5 5 5 5 5 5
6 4 4 6 6 5 6 6 6 3 2 4 6 6 5 3 2 2 2 2 1 3 5 6 6 4 4 4 3 3 4 4 5 6 7 6 6 5 4 4 4 4 4 3 8 6 5 5 5 5 5 5 5 5
5 3 5 6 7 7 4 3 4 2 2 2 2 3 3 2 1 0 2 3 4 4 5 4 4 4 3 4 4 4 3 3 3 5 6 6 6 4 4 4 4 4 4 4 4 4 7 5 5 4 5 5 5 6
3 4 6 5 6 4 3 2 2 2 2 3 2 4 4 2 2 0 1 2 2 4 6 5 4 3 3 3 4 5 5 3 3 3 4 4 3 4 4 4 4 4 4 4 5 5 5 5 5 6 6 6 6 6
4 5 6 7 5 3 2 3 3 4 3 4 4 3 3 3 5 3 3 3 4 6 6 4 3 4 3 3 3 3 8 3 2 3 4 3 4 4 4 4 4 4 4 4 4 4 5 5 5 6 6 6 6 6
4 4 5 5 5 6 4 4 5 5 4 4 4 3 3 4 6 3 4 4 4 4 3 3 3 3 3 3 3 3 5 3 5 7 7 7 8 6 4 3 3 3 4 5 5 4 5 5 5 5 5 5 5 5